Torna al catalogo

SL-14 DEB

AttivoPO
NORAD 26010·DEBRIS·🇷🇺 Russia

Lanciato Sep 28, 1991 da Plesetsk Cosmodrome

Loading…

Prossimi Passaggi (prossime 24 ore)

TLE

AggiornatoSource: Space-Track

Epoca: Sep 14, 2026, 00:28 UTC

1 26010U 91068V   26257.02008716  .00000054  00000-0  31223-3 0  9992
2 26010  82.7296 274.7244 0050366 319.0151  67.8382 12.44761717214961

Traccia SL-14 DEB in tempo reale con AllMySat

Download on the App Store